Location: Newark
(36.2667°N, 50.0000°E)
Time: 23:57:58
(UTC+00:00)

X-37B - Visible Passes

Search period start: 25 September 2020 00:00
Search period end: 05 October 2020 00:00
Orbit: 386 x 387 km, 45.0° (Epoch: 18 September)

Date Brightness Start Highest point End Pass type
(mag) Time Alt. Az. Time Alt. Az. Time Alt. Az.
25 Sep 1.3 01:32:12 23° W 01:33:37 36° SW 01:36:34 10° SSE visible
26 Sep 2.7 00:37:00 22° SE 00:37:00 22° SE 00:38:16 10° SE visible
27 Sep 2.8 01:14:17 14° S 01:14:17 14° S 01:15:10 10° S visible
29 Sep 3.0 15:47:15 10° S 15:47:44 12° S 15:47:44 12° S visible
30 Sep 3.2 16:24:06 10° SW 16:24:52 16° SW 16:24:52 16° SW visible
01 Oct 1.3 15:25:50 10° SSW 15:28:45 35° SE 15:29:31 30° ESE visible
02 Oct 1.4 16:03:35 10° WSW 16:06:19 51° WNW 16:06:19 51° WNW visible
03 Oct 0.5 15:04:58 10° SW 15:08:07 75° SSE 15:10:41 15° ENE visible
03 Oct 3.9 16:42:21 10° WNW 16:42:58 14° WNW 16:42:58 14° WNW visible
04 Oct 2.0 15:43:20 10° W 15:46:15 33° NNW 15:47:12 27° NNE visible
